Probability
29 26 58 52 48 52 48 48 48 52 45 45 39 45 42 45 48 58 48 48 45 42 39 45 45 35 29 23 26 29 29 26 23 19 23 29 32 26 23 26 23 10 23
39 32 58 52 48 48 52 52 48 45 42 39 32 32 39 39 42 48 42 48 45 45 39 35 32 29 23 26 29 29 19 16 10 13 13 13 16 26 16 19 26 16 19
39 35 52 55 48 48 48 52 42 42 39 35 32 35 32 32 42 39 35 39 42 39 42 42 35 35 26 29 32 26 16 10 13 10 3 3 3 16 13 16 16 26 19
32 39 39 52 48 48 48 45 42 42 35 39 32 32 35 26 32 42 35 32 35 35 39 35 35 35 35 32 32 26 16 10 10 0 3 3 3 3 10 13 16 16 10
29 32 35 52 48 48 45 42 42 35 39 35 29 29 29 29 29 35 29 32 29 32 32 32 35 29 32 32 29 29 16 13 0 0 0 0 3 6 6 13 13 13 6
29 32 32 52 48 45 45 45 35 39 35 39 32 29 29 26 26 29 32 35 29 29 32 32 23 19 19 26 23 23 16 10 0 0 0 0 0 3 3 10 10 3 10
26 26 29 48 45 42 42 35 35 39 39 35 32 32 29 29 23 29 32 32 29 29 26 26 23 19 19 23 16 16 16 0 0 0 0 0 0 13 6 0 6 3 6
26 23 19 39 42 35 35 39 35 35 35 35 32 35 32 29 26 23 29 32 26 29 26 23 26 19 19 16 16 13 3 0 0 0 0 0 0 10 3 3 6 6 3
23 19 16 19 23 29 29 32 29 29 29 29 26 29 26 19 19 16 23 26 26 23 23 19 26 19 16 16 19 0 0 0 0 0 0 0 6 6 6 0 3 3 3
19 19 16 16 16 13 13 16 19 23 23 23 16 10 3 13 16 13 13 16 23 23 16 19 19 23 16 16 10 0 0 0 0 0 0 0 3 6 3 3 6 0 0
19 19 16 16 13 10 13 13 13 6 6 6 0 3 3 3 3 3 3 6 6 10 19 19 19 19 13 3 0 0 0 0 0 0 0 0 6 3 3 3 3 0 0
16 16 10 13 10 10 10 10 10 3 0 0 0 0 0 0 0 3 3 3 6 6 6 13 16 6 3 0 0 0 0 0 0 0 0 0 6 3 3 3 6 3 3
13 13 13 10 10 10 6 10 10 6 3 3 3 3 0 0 0 0 0 0 0 0 0 3 3 3 0 0 0 0 0 0 0 0 0 0 3 3 3 3 10 3 0
13 13 13 10 10 10 10 10 10 10 6 6 3 3 0 0 0 0 0 0 0 0 0 0 0 0 0 0 0 0 0 0 0 0 0 0 3 3 3 3 3 3 0
10 13 13 13 10 10 10 10 10 10 10 3 3 3 3 0 0 0 0 0 0 0 0 0 0 0 0 0 0 0 0 0 0 0 0 0 0 3 3 3 3 0 0
10 10 10 13 10 10 10 10 10 10 6 0 3 3 3 3 0 0 0 0 0 0 0 0 0 0 0 0 0 0 0 0 0 0 0 0 0 0 3 6 0 0 0
10 10 10 10 10 10 10 10 10 10 3 3 0 0 0 3 0 0 0 0 0 0 0 0 0 0 0 0 0 0 0 0 0 0 0 0 0 0 0 0 3 0 0
6 6 10 10 10 10 10 6 6 6 6 3 0 0 0 0 0 0 0 0 0 0 0 0 0 0 0 0 0 0 0 0 0 0 0 0 0 0 0 0 0 3 3
6 6 6 6 6 6 6 3 0 0 3 0 0 0 0 0 0 0 0 0 0 0 0 0 0 0 0 0 0 0 0 0 0 0 0 0 0 0 0 0 0 0 0
3 3 3 3 3 6 6 3 0 0 0 0 0 0 3 0 0 0 0 0 0 0 0 0 0 0 0 0 0 0 0 0 0 0 0 0 0 0 0 0 0 0 0
3 3 3 3 3 3 3 0 0 0 0 0 3 0 0 0 0 0 0 0 0 0 0 0 0 0 0 0 0 0 0 0 0 0 0 0 0 0 0 0 0 0 0
3 3 3 6 3 3 3 0 0 0 0 0 3 0 0 0 0 0 0 0 0 0 0 0 0 0 0 0 0 0 0 0 0 0 0 0 0 0 0 0 0 0 0
3 0 3 3 3 0 0 0 0 0 0 0 0 3 0 0 0 0 0 0 0 0 0 0 0 0 0 0 0 0 0 0 0 0 0 0 0 0 0 0 0 0 0
3 0 0 0 0 0 0 0 0 0 0 0 0 0 0 0 0 0 0 0 0 0 0 0 0 0 0 0 0 0 0 0 0 0 0 0 0 0 0 0 0 0 0
3 0 0 0 0 0 0 0 0 0 0 0 0 0 0 0 0 0 0 0 0 0 0 0 0 0 0 0 0 0 0 0 0 0 0 0 0 0 0 0 0 0 0
0 0 0 0 0 0 0 0 0 0 0 0 0 0 0 0 0 0 0 0 0 0 0 0 0 0 0 0 0 0 0 0 0 0 0 0 0 0 0 0 0 0 0
Height
5846 5846 5848 5849 5851 5852 5853 5854 5855 5856 5857 5858 5859 5860 5861 5862 5863 5863 5864 5865 5866 5866 5867 5868 5868 5869 5870 5870 5871 5872 5872 5873 5873 5874 5874 5875 5875 5875 5876 5876 5876 5876 5876
5843 5844 5846 5847 5849 5850 5851 5852 5853 5854 5855 5856 5857 5859 5860 5861 5862 5863 5864 5864 5865 5866 5867 5867 5868 5869 5869 5870 5871 5871 5872 5873 5873 5874 5875 5875 5875 5876 5876 5876 5876 5876 5876
5840 5842 5843 5845 5846 5848 5849 5850 5851 5853 5854 5855 5856 5857 5858 5859 5860 5862 5862 5863 5864 5865 5866 5867 5867 5868 5869 5869 5870 5871 5872 5872 5873 5874 5875 5875 5875 5875 5876 5876 5876 5876 5876
5837 5839 5840 5842 5844 5845 5847 5848 5850 5851 5852 5853 5854 5856 5857 5858 5859 5860 5861 5862 5863 5864 5865 5866 5867 5867 5868 5869 5870 5870 5871 5872 5873 5874 5874 5875 5875 5875 5875 5875 5876 5876 5876
5834 5836 5837 5839 5841 5842 5844 5846 5847 5849 5850 5851 5852 5854 5855 5856 5857 5859 5860 5861 5862 5863 5864 5865 5866 5866 5867 5868 5869 5870 5870 5871 5872 5873 5874 5874 5875 5875 5875 5875 5875 5875 5875
5830 5832 5834 5836 5838 5839 5841 5843 5845 5846 5848 5849 5850 5851 5853 5854 5855 5857 5858 5859 5860 5861 5862 5863 5864 5865 5866 5867 5868 5869 5869 5870 5871 5872 5873 5873 5874 5874 5874 5874 5874 5874 5874
5826 5828 5830 5832 5834 5836 5838 5840 5842 5843 5845 5846 5848 5849 5850 5852 5853 5855 5856 5857 5858 5859 5860 5861 5863 5864 5865 5866 5866 5867 5868 5869 5870 5871 5872 5872 5873 5873 5873 5873 5873 5874 5874
5821 5824 5825 5827 5830 5832 5834 5836 5838 5840 5842 5843 5845 5846 5848 5849 5850 5852 5853 5855 5856 5857 5858 5860 5861 5862 5863 5864 5865 5866 5867 5868 5869 5870 5870 5871 5871 5872 5872 5872 5872 5872 5872
5816 5819 5821 5823 5825 5827 5830 5832 5834 5836 5838 5840 5841 5843 5844 5846 5847 5849 5851 5852 5854 5855 5856 5857 5858 5860 5861 5862 5863 5864 5865 5866 5867 5868 5869 5869 5870 5870 5870 5871 5871 5871 5871
5811 5813 5815 5818 5820 5822 5825 5827 5829 5832 5834 5835 5837 5839 5841 5842 5844 5846 5848 5849 5851 5852 5854 5855 5856 5857 5859 5860 5861 5862 5863 5864 5865 5866 5867 5867 5868 5868 5869 5869 5869 5869 5869
5805 5807 5810 5812 5815 5817 5820 5822 5824 5827 5829 5831 5833 5835 5837 5838 5840 5842 5844 5846 5848 5849 5851 5852 5853 5854 5856 5857 5858 5860 5861 5862 5863 5864 5865 5865 5866 5866 5867 5867 5867 5867 5867
5799 5801 5804 5806 5809 5811 5814 5816 5819 5821 5823 5826 5828 5830 5832 5834 5836 5838 5840 5842 5844 5846 5847 5849 5850 5851 5853 5854 5855 5857 5858 5859 5860 5861 5862 5863 5864 5864 5864 5865 5865 5865 5865
5792 5795 5798 5800 5803 5805 5807 5810 5812 5815 5817 5820 5822 5824 5827 5829 5831 5833 5835 5838 5840 5842 5844 5845 5847 5848 5850 5851 5852 5853 5855 5856 5857 5858 5859 5860 5861 5861 5862 5862 5862 5862 5862
5786 5788 5791 5793 5796 5798 5801 5803 5806 5809 5811 5814 5816 5819 5821 5823 5826 5828 5830 5833 5835 5837 5839 5841 5842 5844 5846 5847 5849 5850 5851 5853 5854 5855 5856 5857 5858 5858 5859 5859 5859 5859 5859
5778 5781 5784 5786 5789 5791 5794 5797 5800 5802 5805 5808 5810 5812 5815 5817 5820 5822 5825 5827 5830 5832 5834 5836 5838 5840 5842 5843 5845 5846 5847 5849 5850 5851 5852 5853 5854 5855 5855 5855 5856 5856 5856
5771 5774 5776 5779 5782 5784 5787 5790 5793 5795 5798 5801 5803 5806 5808 5810 5813 5816 5819 5822 5824 5827 5829 5831 5833 5835 5837 5838 5840 5842 5843 5845 5846 5847 5848 5849 5850 5851 5851 5851 5851 5851 5852
5763 5766 5768 5771 5774 5777 5779 5783 5785 5788 5791 5794 5797 5800 5802 5804 5807 5810 5813 5815 5818 5821 5823 5825 5827 5830 5832 5834 5835 5837 5838 5840 5841 5843 5844 5844 5845 5846 5846 5847 5847 5847 5847
5754 5757 5760 5763 5766 5769 5772 5775 5778 5780 5783 5786 5789 5792 5795 5798 5800 5803 5806 5809 5812 5814 5817 5819 5822 5824 5826 5828 5830 5832 5833 5835 5836 5837 5838 5839 5840 5841 5841 5842 5842 5842 5842
5744 5748 5751 5754 5757 5760 5764 5767 5769 5772 5775 5778 5781 5784 5787 5790 5793 5796 5799 5802 5805 5807 5810 5813 5815 5818 5820 5822 5824 5826 5828 5829 5831 5832 5833 5834 5835 5835 5836 5836 5837 5837 5837
5735 5738 5742 5745 5748 5752 5755 5758 5761 5764 5767 5770 5773 5776 5779 5782 5785 5789 5792 5795 5797 5801 5803 5806 5809 5811 5814 5816 5818 5820 5821 5823 5824 5826 5827 5828 5829 5830 5830 5830 5831 5831 5831
5726 5729 5733 5736 5740 5743 5746 5749 5752 5755 5758 5762 5764 5767 5770 5774 5777 5781 5784 5787 5790 5793 5796 5799 5802 5804 5807 5809 5811 5813 5815 5816 5818 5819 5820 5821 5822 5823 5824 5824 5824 5824 5824
5717 5721 5724 5727 5731 5734 5737 5741 5744 5747 5750 5753 5756 5759 5762 5766 5769 5773 5776 5780 5783 5786 5789 5792 5795 5797 5800 5802 5804 5806 5808 5810 5811 5812 5813 5815 5815 5816 5816 5817 5817 5817 5817
5709 5712 5715 5719 5722 5725 5729 5732 5735 5738 5741 5745 5748 5751 5754 5758 5762 5765 5768 5772 5775 5779 5782 5784 5787 5790 5793 5795 5797 5799 5801 5803 5804 5806 5806 5807 5808 5808 5809 5809 5810 5810 5810
5700 5703 5706 5709 5713 5717 5720 5723 5727 5731 5733 5737 5740 5743 5747 5750 5754 5757 5761 5764 5767 5770 5774 5777 5779 5782 5785 5787 5789 5791 5793 5795 5797 5798 5799 5799 5800 5800 5801 5801 5802 5801 5801
5690 5694 5697 5701 5704 5708 5712 5715 5718 5722 5725 5728 5732 5735 5739 5742 5746 5750 5753 5756 5759 5762 5766 5769 5771 5774 5776 5778 5781 5783 5784 5786 5788 5789 5790 5791 5792 5792 5793 5793 5793 5793 5792
5681 5685 5688 5692 5696 5700 5703 5706 5710 5713 5717 5720 5724 5727 5731 5735 5738 5742 5745 5748 5751 5754 5757 5760 5763 5765 5767 5769 5772 5774 5775 5777 5779 5780 5781 5782 5783 5784 5784 5784 5784 5784 5784
Wind_Speed
15 15 14 14 13 12 12 12 11 11 10 10 10 9 9 8 8 7 6 6 6 6 6 5 5 4 4 3 3 3 3 2 2 2 2 2 2 2 2 2 3 3 4
16 16 15 15 15 14 13 13 12 12 12 11 11 11 10 10 9 8 8 7 7 7 6 6 6 5 5 4 4 3 3 3 2 2 1 1 1 1 1 2 2 3 4
18 17 16 16 16 16 15 14 13 13 13 13 12 12 11 11 10 10 9 8 8 8 7 7 6 6 5 5 5 5 5 4 3 3 2 2 1 1 1 1 2 3 3
19 19 18 17 17 17 17 16 15 14 13 13 13 13 12 12 11 10 10 9 9 9 8 8 7 7 6 6 6 6 6 5 5 4 3 3 2 2 1 2 2 2 3
21 20 20 19 19 18 18 17 16 15 15 14 14 14 13 13 12 11 11 10 10 10 9 9 8 8 7 7 6 6 6 6 6 6 5 4 3 3 2 2 2 3 3
22 22 22 21 20 19 19 19 18 17 16 16 15 15 15 14 14 13 12 12 11 11 10 10 9 9 9 8 8 7 7 7 7 6 6 6 5 5 4 3 3 3 4
24 23 23 23 22 21 21 20 20 19 18 18 17 17 16 16 15 15 14 14 13 12 11 11 11 10 10 9 9 9 8 8 8 8 7 7 6 6 5 5 5 5 5
26 25 25 24 24 23 22 22 22 21 20 19 19 19 18 17 17 16 15 15 14 13 13 12 12 12 11 11 10 10 10 9 9 9 8 8 7 7 7 7 6 6 6
27 27 27 26 26 25 24 24 23 23 22 21 21 20 20 20 19 18 17 16 15 15 14 14 13 13 13 12 11 11 11 11 10 10 9 9 9 8 8 8 8 8 7
29 29 29 28 28 27 26 26 25 24 24 23 22 22 22 21 21 20 19 18 17 16 16 16 15 14 14 13 13 12 12 12 11 11 11 10 10 9 9 9 9 9 8
31 30 30 29 29 28 28 27 27 26 25 25 24 23 23 23 22 21 21 20 19 18 17 17 16 16 15 15 15 14 14 13 13 12 12 12 12 12 11 10 10 10 10
32 32 32 31 31 30 29 29 29 28 27 27 26 25 24 24 24 23 22 22 21 20 20 19 18 17 17 17 17 16 16 15 15 14 14 14 14 13 13 12 12 12 12
33 33 33 32 32 31 31 30 30 30 29 28 28 27 26 26 26 26 25 24 23 23 22 21 20 19 19 18 18 18 17 17 16 16 15 15 15 15 15 14 14 14 14
34 34 33 33 33 33 32 32 31 31 30 30 29 28 27 27 27 27 26 26 26 25 24 24 22 21 20 20 20 20 19 19 18 18 18 17 16 16 16 16 16 16 16
35 35 34 34 34 35 34 33 33 32 31 31 31 30 29 29 28 28 27 27 27 27 27 26 25 23 22 22 22 21 21 20 20 20 19 19 18 18 18 18 18 17 18
37 36 36 35 35 35 35 35 35 35 33 33 32 32 31 31 31 29 29 29 29 28 28 28 26 25 24 24 23 23 22 22 22 21 21 21 21 20 20 20 20 20 19
39 38 37 37 36 36 36 36 36 36 36 35 34 33 32 32 31 30 31 31 31 30 29 29 28 27 26 25 25 25 24 24 24 24 23 23 23 23 22 22 22 22 22
40 40 39 39 38 37 37 37 37 37 37 36 36 35 35 34 33 32 32 32 32 32 31 31 30 29 28 27 27 27 26 26 25 26 25 25 25 25 24 24 24 24 25
41 41 41 40 39 38 38 36 37 37 37 38 37 37 36 36 35 33 33 33 33 32 32 32 31 31 30 29 28 28 28 28 28 28 27 26 26 27 26 26 26 26 26
41 41 41 41 40 39 39 38 37 37 38 39 38 37 37 37 36 35 35 34 34 34 33 32 32 31 31 30 30 29 29 30 30 29 29 29 28 28 28 28 28 28 28
41 41 40 41 41 40 40 38 37 37 38 38 38 38 37 37 36 35 35 35 35 35 34 33 32 32 32 31 31 30 30 30 30 30 30 30 30 30 30 30 30 30 30
41 40 40 40 41 40 40 39 38 38 38 38 38 38 38 37 36 36 36 36 36 36 35 35 34 34 33 33 32 32 31 32 32 32 32 32 32 32 31 31 31 31 32
42 41 40 40 40 40 39 39 39 39 38 38 38 38 38 37 37 36 36 36 36 37 37 36 35 35 34 34 34 34 33 33 34 34 34 34 34 33 33 33 33 33 34
42 41 41 40 40 40 39 39 39 39 38 37 38 38 39 38 37 37 37 38 38 37 36 36 35 36 35 35 35 35 35 35 35 35 35 36 37 36 35 35 35 35 35
42 41 41 40 40 39 39 39 39 39 39 38 38 39 39 39 39 38 38 38 38 38 38 37 37 37 36 36 36 37 37 36 36 36 37 37 37 37 37 37 37 36 36
42 41 41 40 40 40 40 39 39 39 39 38 38 39 39 39 39 39 39 39 39 39 39 38 38 37 38 37 37 38 38 37 37 37 37 37 37 37 38 38 38 39 38
Wind_Direction
234 236 236 237 237 238 237 234 230 227 225 223 220 218 218 218 218 216 215 215 212 209 208 207 203 200 198 198 193 183 175 167 151 138 125 110 93 71 55 46 40 32 24
237 238 238 238 239 239 238 236 233 230 228 226 223 221 221 222 223 222 222 223 221 217 214 214 213 212 211 213 214 209 205 198 185 177 168 155 128 76 38 30 26 21 18
238 238 238 238 239 239 238 237 235 233 231 229 227 225 225 226 226 227 228 230 229 226 223 221 220 220 220 221 224 224 222 219 215 213 216 221 234 258 337 0 7 6 10
238 238 238 238 238 239 238 237 235 233 233 231 230 229 228 229 230 230 233 235 235 233 231 230 229 230 227 226 228 228 226 225 223 223 228 235 242 254 286 308 326 335 346
239 238 238 238 238 237 238 238 236 234 234 233 233 232 231 232 231 232 235 236 237 236 235 234 234 234 233 230 230 231 229 226 224 227 231 236 244 257 276 293 302 310 316
239 239 239 239 238 237 238 238 238 238 236 236 236 237 237 236 235 237 238 238 237 236 236 236 236 236 236 235 234 234 232 229 228 231 235 241 248 256 268 281 288 297 306
241 241 241 240 239 238 238 239 239 240 240 239 239 240 240 241 241 241 239 239 238 237 236 236 236 237 239 238 238 238 236 234 235 237 240 245 251 257 266 274 281 287 293
242 242 242 242 241 240 239 239 239 240 242 242 242 243 244 244 244 242 240 239 238 238 237 238 238 237 240 241 242 240 239 237 238 242 245 248 254 259 265 272 278 282 286
243 242 243 242 242 241 241 240 240 241 243 244 244 245 245 246 246 244 241 238 239 240 241 241 241 239 240 241 243 241 241 242 242 244 247 250 254 259 264 270 275 278 281
243 242 242 242 242 242 241 241 241 242 244 245 246 246 246 246 246 244 241 238 239 241 243 244 243 242 242 244 245 244 243 245 246 246 247 250 254 258 263 268 272 275 278
244 242 242 243 243 243 242 242 242 243 244 246 247 247 246 247 247 245 243 239 240 241 244 245 245 244 245 246 248 247 246 246 246 248 249 251 255 259 264 268 269 273 276
243 243 243 243 244 244 244 243 243 244 244 245 247 247 247 246 246 244 243 241 241 243 245 247 247 246 247 249 250 249 248 248 248 250 253 254 255 259 264 267 269 271 275
243 243 243 244 244 245 244 244 244 244 245 245 246 247 248 247 245 244 243 242 242 244 246 248 249 249 249 249 250 250 250 251 252 252 253 256 258 260 264 268 271 272 274
244 243 244 244 245 245 244 244 244 245 245 246 247 246 246 246 246 244 244 243 243 245 247 248 249 250 250 250 250 252 252 252 254 254 255 257 260 262 265 269 272 272 274
245 245 245 245 245 245 243 243 243 245 246 246 245 244 245 246 246 246 244 245 246 247 247 248 249 249 250 251 251 252 253 254 254 256 257 258 260 263 266 269 271 272 273
245 246 246 246 246 245 244 243 244 245 246 247 246 244 246 246 246 246 246 246 247 249 249 248 248 249 250 251 251 253 254 255 255 256 258 259 261 263 266 268 270 271 274
246 246 247 247 247 246 245 245 245 246 247 247 245 245 246 246 245 246 247 247 247 248 249 249 248 249 250 251 251 252 254 256 257 257 259 261 262 264 266 268 270 272 275
246 246 247 247 246 246 246 246 246 248 248 247 245 246 247 246 246 246 247 247 246 247 249 249 249 249 250 251 252 253 255 257 259 259 260 262 263 265 267 269 269 272 274
246 246 246 246 246 246 247 248 247 247 247 246 245 247 247 247 246 246 245 246 246 246 248 249 250 250 250 250 252 254 255 256 258 261 262 263 264 265 267 269 269 272 273
246 246 246 245 245 246 247 246 245 246 246 246 246 247 247 247 246 245 246 245 246 246 247 249 250 250 250 250 252 254 256 256 258 260 262 264 265 267 268 269 270 271 274
245 245 245 245 244 245 245 245 244 245 245 245 247 247 246 246 245 245 245 245 245 246 247 247 249 250 250 251 252 254 256 257 258 260 262 264 266 268 269 269 270 271 273
244 245 245 244 244 244 244 243 245 245 244 244 244 245 245 244 244 244 244 245 245 246 247 248 249 251 251 252 253 255 257 258 259 260 262 264 266 268 268 269 270 271 273
244 245 245 244 243 243 243 243 243 243 245 244 243 244 244 243 243 244 244 244 245 247 247 248 250 251 252 253 254 255 257 259 260 261 262 263 265 266 268 269 271 272 272
244 244 244 243 242 243 242 243 244 245 245 244 243 243 243 243 243 245 246 246 246 246 247 248 250 252 253 254 255 256 259 260 261 261 262 263 265 267 268 270 272 274 273
243 243 243 243 242 242 242 244 244 244 243 244 243 242 242 242 242 244 247 247 247 248 248 248 250 253 253 254 255 257 259 261 262 262 262 263 265 266 268 272 273 274 276
241 242 242 243 242 242 242 243 243 243 243 244 244 243 242 242 242 245 246 247 248 248 249 249 252 253 253 254 255 257 259 261 262 263 263 264 265 267 268 270 272 275 277